Location: ??????
(38.5153°N, 23.0340°E)
Time: 22:45:42
(UTC+00:00)

Cosmos 2333 Rocket - Pass Details

Date: 13 December 2025
Orbit: 837 x 865 km, 70.8° (Epoch: 14 January)

Event Time Altitude Azimuth Distance (km) Brightness Sun altitude
Rises 18:24:03 0° 222° (SW) 3,413 5.9 -37.6°
Reaches altitude 10° 18:26:38 10° 229° (SW) 2,485 5.1 -38.1°
Enters shadow 18:29:35 28° 250° (WSW) 1,565 4.0 -38.6°
